Location: Habighorst
(52.7089°N, 10.2278°E)
Time: 19:33:22
(UTC+00:00)

CZ-4C R/B - Pass Details

Date: 13 January 2026
Orbit: 482 x 1496 km, 63.4° (Epoch: 16 February)

Event Time Altitude Azimuth Distance (km) Brightness Sun altitude
Exits shadow 05:19:48 20° 323° (NW) 1,929 3.6 -18.1°
Maximum altitude 05:23:02 33° 12° (NNE) 1,603 3.6 -17.6°
Drops below altitude 10° 05:29:33 10° 75° (ENE) 3,107 6.1 -16.7°
Sets 05:33:00 0° 84° (E) 4,233 7.2 -16.2°
